COSMOS 2187

Satellite information

Favourite Embed

Satellite Type and Status

PAYLOADIN ORBIT

Key statistics

Satellite COSMOS 2187 at a glance.

Uptime

12202

Days in orbit

Revolutions

≈ 12.6

Per day

Orbit

LEO

Low Earth Orbit

Inclination

74.0

Latest

Satellite identification and parameters

Extended collection of information and parameters for COSMOS 2187.

Object identification

Identified? True

Debris? False

Object name: COSMOS 2187

International designator: 1992-030A

Object number (NORAD): 21976

Object ID (CCSDS): 21976

Country: COMMONWEALTH OF INDEPENDENT STATES (CIS)

Current information (Y/N): Y

RCS size: MEDIUM

Orbital parameters

Period: 114.674 minutes

Inclination: 74.0043 deg

SMA: 7818.746 km

Apoapsis: 1480.317 km

Periapsis: 1400.906 km

RAAN: 59.4905 deg

Eccentricy: 0.00507825

Argument of periapsis: 329.964 deg

Mean anomaly: 199.0985 deg

Mean motion: 12.55732314 rev/day

Mean motion (dot): 0.00000002 rev/day2

B* drag term: 0.00011018643 1/REarth

Two-line elements (TLE)

Creation date: Oct. 30, 2025, 3:32 a.m.

Reference frame: TEME

Reference center: EARTH

Epoch: Oct. 29, 2025, 6:23 p.m. UTC

TLE line 0: 0 COSMOS 2187

TLE line 1: 1 21976U 92030A 25302.76608339 .00000002 00000-0 11019-3 0 9990

TLE line 2: 2 21976 74.0043 59.4905 0050782 329.9640 199.0985 12.55732314531319

Live tracking on map

Real-time ground track for satellite COSMOS 2187.

In-orbit conjunctions

A list of the most updated potential collisions computed for object COSMOS 2187.

Target Orbit TCA Probability of collision Miss distance Type
DELTA 1 DEB SSO 2025-02-18 16:58:46 0.00128612 118.0 (m) DEBRIS

Associated space launch

Military communications satellites

COSMOS 2187 was lifted into orbit during the mission ‘Kosmos-3M | Strela-1M 361-368’, on board a Kosmos-3M space rocket.

The launch took place on June 3, 1992, 12:50 a.m. from 133/3 (133L).

For more information about the launch, click the button.

Launch to space Kosmos-3M | Strela-1M 361-368
Kosmos-3M | Strela-1M 361-368

Agency: N/A

Status: Launch Successful

Launch date: June 3, 1992, 12:50 a.m. UTC

Rocket: Kosmos-3M

Launch pad: 133/3 (133L)

Location: Plesetsk Cosmodrome, Russian Federation

...

Latest news about this satellite

There are no fresh news available about this satellite. Check back as we update our databases every day.


Newsletter sign-up

Weekly statistics, charts and insights to help you stay on top of the space industry.